TimeMST,TemperatureF,Dew PointF,Humidity,Sea Level PressureIn,VisibilityMPH,Wind Direction,Wind SpeedMPH,Gust SpeedMPH,PrecipitationIn,Events,Conditions,WindDirDegrees,DateUTC
12:53 AM,32.0,21.9,66,30.09,10.0,Calm,Calm,-,N/A,,Clear,0,2012-11-07 07:53:00
1:53 AM,34.0,23.0,64,30.05,10.0,WSW,11.5,-,N/A,,Clear,240,2012-11-07 08:53:00
2:53 AM,39.0,21.9,50,30.01,10.0,SW,12.7,-,N/A,,Clear,220,2012-11-07 09:53:00
3:53 AM,39.9,21.0,47,30.00,10.0,South,5.8,-,N/A,,Clear,170,2012-11-07 10:53:00
5:53 AM,42.1,21.0,43,30.04,10.0,SSW,10.4,-,N/A,,Clear,200,2012-11-07 12:53:00
6:53 AM,41.0,19.9,43,30.06,10.0,South,8.1,-,N/A,,Clear,170,2012-11-07 13:53:00
7:51 AM,46.4,21.2,37,30.17,10.0,SSW,17.3,21.9,N/A,,Clear,210,2012-11-07 14:51:00
7:53 AM,46.9,21.0,36,30.04,10.0,SSW,17.3,21.9,N/A,,Clear,210,2012-11-07 14:53:00
8:53 AM,53.1,19.9,27,30.02,10.0,SW,18.4,24.2,N/A,,Clear,220,2012-11-07 15:53:00
9:53 AM,57.9,19.0,22,30.00,10.0,SW,19.6,29.9,N/A,,Clear,230,2012-11-07 16:53:00
10:53 AM,61.0,18.0,19,29.97,10.0,SW,26.5,33.4,N/A,,Clear,220,2012-11-07 17:53:00
11:53 AM,61.0,17.1,18,29.93,10.0,SW,20.7,29.9,N/A,,Clear,230,2012-11-07 18:53:00
12:53 PM,63.0,16.0,16,29.88,10.0,WSW,18.4,23.0,N/A,,Clear,240,2012-11-07 19:53:00
1:53 PM,63.0,17.1,17,29.85,10.0,WSW,18.4,25.3,N/A,,Clear,250,2012-11-07 20:53:00
2:53 PM,62.1,18.0,18,29.82,10.0,WSW,21.9,-,N/A,,Clear,250,2012-11-07 21:53:00
4:53 PM,51.1,12.9,22,29.89,10.0,West,10.4,-,N/A,,Clear,260,2012-11-07 23:53:00
5:53 PM,48.0,12.9,24,29.90,10.0,Calm,Calm,-,N/A,,Clear,0,2012-11-08 00:53:00
6:53 PM,48.0,15.1,27,29.90,10.0,SW,9.2,-,N/A,,Clear,230,2012-11-08 01:53:00
7:53 PM,39.9,16.0,38,29.91,10.0,WSW,6.9,-,N/A,,Clear,240,2012-11-08 02:53:00
8:53 PM,43.0,18.0,37,29.86,10.0,SW,15.0,-,N/A,,Clear,230,2012-11-08 03:53:00
9:53 PM,43.0,18.0,37,29.83,10.0,South,8.1,-,N/A,,Clear,190,2012-11-08 04:53:00
10:53 PM,39.0,18.0,43,29.83,10.0,South,10.4,-,N/A,,Clear,190,2012-11-08 05:53:00
11:53 PM,45.0,18.0,34,29.81,10.0,SSW,9.2,-,N/A,,Clear,200,2012-11-08 06:53:00